Wind_Speed
22 21 19 15 10 5 4 4 11 18 19 15 14 17 20 18 19 18 18 17 14 15 15 14 13 12 11 10 10 11 12 13 15 17 17 16 16 15 15 15 15 15 16 17 17 17 17 17 18
18 18 15 12 9 6 7 6 22 23 19 10 13 17 18 14 15 15 15 14 13 14 15 14 13 11 10 9 9 9 9 10 12 14 15 16 17 16 16 16 17 17 18 18 18 18 18 18 19
13 12 10 12 12 7 2 13 27 23 12 11 17 16 14 12 11 10 9 9 9 11 13 15 14 13 12 10 10 10 11 11 12 13 14 15 16 17 17 18 17 18 18 19 19 19 20 20 20
10 9 12 14 13 5 6 12 21 19 12 12 16 15 11 10 7 6 6 7 8 8 10 12 15 16 14 12 11 11 12 13 13 13 13 13 14 14 15 14 14 14 14 15 16 17 18 19 19
9 11 17 16 12 4 13 11 13 14 11 10 11 14 11 10 8 7 7 8 8 7 8 9 11 13 14 12 11 12 13 13 13 14 14 13 13 13 12 12 12 12 12 13 14 15 17 18 19
13 17 19 13 4 9 11 12 12 9 6 8 8 12 12 12 11 10 8 9 8 7 7 8 9 9 10 11 12 12 13 14 14 14 14 13 13 12 12 13 13 14 14 16 17 17 18 18 19
14 19 19 9 6 11 11 12 12 8 5 4 7 13 11 13 12 11 10 8 7 7 7 7 8 9 9 11 12 14 15 16 16 15 14 13 13 13 13 15 16 18 18 19 20 20 20 21 21
12 14 20 11 7 11 12 11 10 8 6 5 6 13 11 13 13 14 12 10 8 8 9 10 10 10 9 9 12 14 16 17 16 15 14 14 15 15 16 18 19 21 21 21 21 22 23 23 23
11 12 17 12 7 12 11 9 9 7 7 6 10 12 10 13 14 14 13 11 9 9 9 10 11 11 11 9 10 13 15 16 15 15 15 16 17 17 17 18 19 21 21 21 21 21 21 21 21
11 15 12 5 11 9 8 9 10 8 9 9 13 14 11 13 15 16 14 12 11 11 10 10 11 13 13 11 11 11 13 14 14 16 17 17 17 17 17 18 19 19 19 20 21 21 20 19 19
13 16 13 8 17 18 13 10 12 11 12 13 18 18 14 14 17 18 17 15 14 14 13 13 12 13 15 13 13 12 12 13 14 15 16 17 17 17 17 17 18 18 17 19 20 20 19 19 19
15 19 18 14 18 23 18 12 14 16 16 18 23 22 14 16 19 19 20 19 18 18 16 15 16 15 16 16 16 15 13 14 14 14 15 16 16 16 17 16 17 18 17 17 18 18 18 19 21
19 20 21 20 20 19 18 16 17 18 20 22 21 21 16 20 22 21 21 21 21 20 19 19 18 18 18 18 17 16 15 15 14 14 15 16 16 17 17 18 19 19 18 17 18 20 20 21 23
21 22 23 22 21 20 18 18 19 17 20 23 19 18 24 26 25 22 22 23 23 22 21 20 19 19 18 18 18 17 17 16 14 15 16 17 18 19 18 19 20 20 20 20 21 22 23 24 25
26 25 25 24 21 19 18 18 15 15 20 24 24 22 28 28 27 25 24 24 23 23 22 22 20 19 19 19 20 20 20 20 19 19 19 21 21 22 22 21 21 23 24 24 26 27 27 28 29
28 27 26 23 23 21 20 20 15 15 21 28 29 28 32 31 30 30 28 24 24 24 24 24 23 21 21 21 22 22 22 22 21 21 22 24 24 24 25 24 24 26 27 28 30 32 33 34 36
29 28 27 24 23 20 20 21 18 16 25 33 32 30 34 33 33 34 31 26 25 24 24 26 25 24 24 24 23 23 23 22 22 23 25 27 27 28 28 28 29 31 32 33 35 36 38 40 41
26 24 22 22 19 20 24 27 25 19 27 32 33 34 36 36 36 38 35 28 26 26 26 28 29 29 29 28 27 27 26 25 25 25 27 29 30 31 32 32 35 37 38 39 41 42 45 46 48
24 22 20 20 18 21 28 34 34 27 27 32 35 36 37 38 39 39 36 29 28 28 29 30 31 33 34 34 34 33 32 30 30 30 30 32 33 34 34 36 38 41 44 45 46 48 50 51 53
22 27 28 27 27 28 29 32 36 35 32 30 37 41 40 40 42 39 36 33 31 31 32 34 35 37 39 40 40 39 38 37 36 36 36 36 36 36 37 39 41 44 47 48 50 52 53 54 55
24 26 28 30 30 33 35 36 39 42 37 37 40 45 44 42 45 43 39 37 34 33 33 36 37 38 40 42 44 44 44 43 42 42 41 40 39 39 40 42 44 47 49 50 51 52 53 54 55
24 24 25 28 30 32 32 36 36 37 35 31 35 41 42 38 42 42 38 36 36 35 34 36 38 39 41 44 45 46 47 47 47 47 46 44 43 42 42 43 45 48 49 49 51 50 51 53 54
18 18 21 23 26 31 33 38 37 33 30 30 30 34 38 36 37 39 37 37 38 36 33 35 38 41 43 45 47 48 49 50 51 51 50 47 44 44 44 45 47 48 48 48 49 51 53 56 58
17 18 20 22 24 29 27 30 32 29 28 29 27 30 35 33 33 36 35 34 35 34 34 36 39 42 44 45 47 49 50 51 52 52 50 48 45 46 47 47 46 46 47 48 50 53 55 57 60
20 19 19 20 22 22 17 22 23 20 21 26 26 30 32 30 36 38 36 34 33 34 35 36 38 40 42 44 47 48 49 50 50 48 46 45 46 47 47 46 45 46 48 50 52 55 57 59 61
22 22 21 19 20 19 16 18 18 18 20 25 29 34 37 39 39 38 36 32 31 31 33 35 37 40 42 44 45 46 47 47 46 45 44 45 47 47 46 47 49 51 52 54 55 58 60 61 61
21 24 22 22 21 23 23 23 20 20 22 25 28 32 36 35 32 32 31 30 29 30 32 34 35 37 39 41 42 43 44 44 43 43 44 45 47 49 50 51 53 54 55 56 58 60 60 60 59
24 22 22 24 25 26 24 21 19 22 23 26 29 33 31 24 25 27 28 28 28 30 31 32 34 36 38 39 40 41 43 42 42 43 45 48 51 53 54 55 55 55 56 57 58 58 57 57 59
21 21 22 25 26 25 24 20 22 27 29 31 33 35 31 26 26 27 28 28 29 30 31 32 34 36 38 40 41 42 43 42 43 46 49 51 53 54 54 54 54 55 56 56 56 55 56 58 60
24 26 26 28 29 28 29 26 28 31 30 31 34 39 38 31 27 27 28 29 30 31 32 34 36 38 40 42 43 45 46 47 49 50 51 52 53 53 53 54 55 56 56 55 54 55 57 59 61
Wind_Direction
221 223 227 227 223 201 89 54 243 247 251 251 264 273 273 278 285 288 288 287 279 268 267 268 267 259 253 251 252 254 255 253 250 250 250 251 250 247 246 249 251 253 254 254 253 254 256 257 259
222 227 226 216 186 115 29 252 244 256 259 262 282 279 279 285 287 289 289 287 279 269 267 265 259 249 244 248 256 261 261 259 255 253 251 251 251 250 253 255 256 256 256 257 257 259 259 259 260
217 220 208 174 140 91 123 226 252 269 288 295 292 292 298 299 295 296 299 299 297 281 273 266 258 251 248 250 258 263 261 259 258 255 252 251 252 255 257 258 258 258 259 260 262 263 263 262 262
202 188 161 152 107 46 242 212 254 277 285 286 298 307 321 316 314 313 322 333 338 322 300 284 270 262 257 254 257 256 256 255 254 253 254 257 259 259 258 258 259 260 261 264 266 267 265 263 261
173 158 149 129 96 188 246 235 251 278 298 306 306 313 332 324 322 322 332 343 344 346 334 323 297 275 260 250 246 246 245 244 247 250 257 260 262 260 257 257 259 263 267 271 271 268 266 264 264
154 145 126 94 90 227 242 239 241 258 292 318 316 306 326 323 320 320 332 343 343 350 346 348 332 303 268 251 245 242 241 245 250 252 258 257 258 261 262 263 265 270 273 275 274 272 270 269 271
164 153 123 122 205 231 235 240 243 239 224 271 305 300 317 317 319 321 326 329 329 337 338 348 346 332 296 268 254 249 249 253 257 262 263 262 261 263 268 270 274 278 279 277 275 273 272 272 273
173 168 135 132 198 226 237 246 251 235 208 235 282 287 306 312 320 327 330 327 321 328 334 339 342 339 325 296 272 264 260 260 264 269 268 268 270 271 273 275 277 278 278 276 272 271 270 271 272
171 167 129 118 218 225 233 240 259 268 266 272 287 285 302 315 321 328 334 328 318 320 328 332 334 333 327 313 296 283 274 270 269 272 276 278 279 279 278 279 279 277 276 273 270 270 270 270 270
182 158 122 124 206 217 228 230 233 261 265 267 280 288 303 320 324 328 336 336 329 324 325 324 326 327 323 315 310 299 287 278 273 276 279 281 282 282 283 284 284 281 278 274 271 270 268 265 266
194 181 161 207 209 205 198 231 240 239 267 268 260 260 281 311 325 330 337 342 340 333 328 324 319 322 321 316 318 305 292 284 278 277 280 284 287 288 288 288 288 284 281 278 275 270 267 265 265
208 201 197 206 219 221 204 200 248 249 255 265 270 254 254 303 320 328 333 340 341 336 331 329 322 318 319 317 315 307 295 287 284 285 290 294 297 300 300 300 295 293 290 285 281 277 274 276 278
220 221 223 224 223 224 214 209 220 243 255 254 267 281 281 300 310 319 324 331 334 333 331 330 324 318 316 314 309 305 301 299 300 305 308 311 315 315 317 318 314 310 303 297 289 286 285 284 287
226 229 235 239 238 234 230 230 219 226 252 266 267 273 282 291 297 304 315 323 326 325 324 323 320 314 310 307 302 302 305 307 312 315 318 320 324 321 321 320 317 311 304 299 293 290 287 286 287
233 234 238 244 247 245 242 244 229 232 243 255 258 260 272 282 287 292 306 317 318 315 315 315 314 310 305 301 298 300 304 307 309 311 313 314 317 316 315 315 312 305 304 303 299 295 293 290 289
239 240 243 247 252 251 246 245 237 246 248 247 249 257 270 278 283 289 298 308 309 307 305 305 307 304 300 299 296 297 302 306 307 307 307 307 309 309 309 308 305 302 303 301 299 297 294 290 289
239 244 247 248 254 263 259 253 232 229 246 243 246 256 269 277 282 284 291 301 300 298 295 295 298 297 296 296 293 293 298 303 305 304 302 302 302 303 304 305 302 300 300 299 298 297 295 291 289
241 248 255 259 255 254 253 250 246 233 246 249 251 256 265 276 280 281 284 294 296 291 286 287 290 292 291 291 289 289 292 296 300 301 302 302 301 300 300 301 300 300 299 298 297 297 294 292 290
230 225 234 247 254 245 248 250 251 240 251 262 259 259 265 273 276 278 279 287 292 288 283 282 284 287 287 286 284 284 286 289 292 294 296 298 298 298 299 300 300 300 298 296 296 295 292 290 287
239 233 228 227 225 226 234 248 256 250 235 251 265 265 267 271 275 279 282 284 286 282 279 279 281 283 284 284 282 282 284 286 288 287 289 291 294 295 295 298 298 298 296 295 294 291 290 287 286
239 242 241 241 240 237 236 245 254 261 259 248 256 265 269 270 272 276 280 280 280 276 274 276 277 279 281 282 281 281 282 284 287 286 284 284 287 290 292 296 297 297 295 295 294 293 291 289 288
246 250 250 247 246 245 245 253 259 270 278 270 260 264 271 274 273 276 277 275 275 272 270 272 273 276 279 279 279 280 282 284 286 286 283 280 283 285 289 293 295 295 295 296 295 295 294 292 291
249 252 253 254 256 258 251 253 257 259 266 267 271 270 269 273 275 276 273 269 269 269 270 271 272 274 276 276 276 279 282 283 286 287 286 284 284 285 288 290 291 292 294 295 294 294 293 292 291
257 256 258 259 260 263 270 269 270 265 259 263 271 268 266 273 273 272 271 268 267 269 271 271 271 272 273 275 277 280 283 284 287 288 289 287 286 287 288 289 290 292 294 294 294 294 292 291 290
260 265 266 268 272 283 295 289 290 285 264 253 251 251 258 264 265 270 271 268 268 270 270 271 272 273 275 277 279 281 283 285 287 288 289 289 289 291 290 292 294 297 298 297 297 294 292 291 291
257 263 266 259 256 265 265 275 284 270 255 247 246 251 258 264 269 270 268 268 267 268 270 273 275 277 279 280 282 283 283 284 285 287 290 291 292 295 296 297 299 300 299 298 296 294 292 292 292
249 247 262 270 269 264 259 253 260 279 272 264 260 260 264 269 271 267 265 264 264 267 270 273 276 278 281 283 284 284 284 284 284 290 294 296 298 301 301 301 301 300 298 296 295 294 294 295 295
259 256 246 250 260 266 270 271 271 263 259 255 252 258 261 269 276 272 267 264 263 265 269 273 277 280 283 285 285 285 286 287 290 294 297 299 300 301 301 301 300 300 299 298 297 296 295 296 297
260 263 251 246 247 256 266 270 271 263 260 260 264 268 269 279 278 269 264 263 264 267 272 276 280 282 284 286 288 289 289 292 295 297 299 299 299 298 297 297 297 299 300 299 298 297 296 298 299
247 251 251 254 257 257 259 260 265 265 265 266 268 269 271 276 273 267 263 262 265 269 275 281 283 285 288 291 291 292 293 295 296 297 298 297 296 294 294 295 297 298 299 298 297 297 298 300 300
Height
5885 5887 5890 5894 5899 5902 5903 5906 5908 5903 5899 5898 5899 5899 5896 5896 5896 5897 5892 5891 5892 5891 5890 5890 5889 5888 5888 5888 5888 5888 5889 5890 5890 5891 5892 5893 5894 5894 5895 5895 5896 5896 5896 5896 5896 5896 5897 5898 5898
5884 5886 5889 5893 5897 5898 5902 5908 5901 5898 5896 5896 5897 5896 5893 5895 5893 5892 5890 5889 5889 5888 5887 5887 5886 5885 5885 5885 5885 5886 5886 5887 5888 5889 5890 5890 5891 5892 5892 5892 5893 5893 5893 5893 5893 5893 5894 5894 5895
5882 5885 5888 5892 5895 5896 5902 5905 5896 5898 5896 5895 5895 5893 5892 5892 5891 5890 5888 5887 5887 5886 5885 5884 5883 5883 5882 5882 5882 5883 5884 5885 5886 5886 5887 5888 5889 5889 5889 5889 5889 5889 5889 5889 5889 5890 5891 5891 5891
5881 5884 5888 5893 5893 5898 5900 5900 5895 5895 5896 5896 5893 5890 5890 5890 5890 5889 5888 5886 5885 5885 5883 5882 5881 5881 5880 5880 5880 5881 5881 5882 5883 5884 5885 5885 5885 5886 5886 5887 5887 5887 5887 5887 5887 5887 5888 5888 5888
5880 5883 5888 5891 5894 5903 5901 5897 5896 5895 5895 5894 5892 5888 5889 5889 5889 5888 5887 5886 5885 5884 5882 5881 5880 5879 5879 5879 5878 5878 5879 5880 5881 5881 5882 5882 5882 5883 5883 5884 5884 5884 5884 5884 5884 5884 5884 5884 5884
5880 5884 5887 5891 5899 5903 5901 5897 5896 5895 5895 5893 5891 5888 5889 5889 5888 5888 5886 5885 5884 5882 5881 5880 5878 5877 5877 5877 5877 5877 5877 5878 5878 5879 5879 5879 5880 5880 5881 5881 5881 5881 5881 5881 5880 5880 5880 5880 5880
5880 5882 5883 5892 5901 5902 5900 5895 5894 5894 5892 5892 5891 5888 5889 5888 5888 5887 5886 5884 5883 5882 5880 5878 5877 5876 5875 5875 5876 5876 5876 5876 5876 5876 5876 5877 5877 5878 5878 5878 5878 5878 5877 5877 5877 5876 5876 5876 5875
5880 5883 5883 5890 5898 5900 5898 5895 5893 5891 5890 5892 5892 5889 5888 5888 5887 5886 5884 5883 5881 5881 5879 5878 5876 5875 5874 5874 5874 5874 5874 5874 5873 5873 5873 5874 5874 5875 5875 5875 5874 5874 5873 5873 5872 5872 5872 5871 5871
5880 5885 5885 5891 5899 5897 5896 5895 5893 5892 5892 5892 5891 5888 5888 5887 5886 5885 5883 5882 5881 5880 5879 5878 5876 5875 5874 5872 5872 5871 5871 5871 5871 5871 5871 5871 5871 5872 5871 5871 5870 5870 5869 5869 5868 5868 5867 5867 5867
5880 5883 5884 5890 5896 5895 5896 5896 5895 5894 5893 5892 5890 5887 5886 5885 5884 5883 5882 5881 5880 5879 5879 5878 5876 5875 5873 5871 5870 5870 5870 5869 5870 5869 5869 5868 5868 5868 5868 5867 5866 5866 5865 5864 5864 5864 5863 5863 5863
5878 5881 5881 5886 5889 5891 5892 5894 5894 5894 5893 5892 5888 5883 5883 5883 5882 5881 5880 5880 5878 5877 5877 5877 5875 5874 5872 5869 5869 5869 5869 5868 5868 5867 5867 5866 5865 5865 5864 5863 5862 5861 5861 5860 5859 5859 5858 5858 5858
5876 5878 5878 5882 5885 5886 5888 5891 5893 5893 5892 5889 5885 5875 5874 5879 5880 5879 5877 5877 5877 5876 5875 5875 5873 5873 5872 5869 5869 5869 5868 5867 5866 5865 5864 5862 5861 5861 5860 5859 5858 5857 5857 5856 5855 5854 5855 5854 5852
5873 5875 5876 5878 5880 5882 5884 5886 5889 5891 5890 5884 5881 5877 5873 5877 5878 5877 5876 5875 5875 5875 5873 5872 5872 5871 5870 5869 5868 5867 5866 5865 5863 5862 5861 5859 5858 5857 5855 5854 5853 5852 5852 5852 5851 5850 5850 5849 5848
5869 5871 5873 5875 5876 5878 5880 5882 5884 5888 5888 5883 5879 5877 5876 5877 5875 5874 5873 5874 5874 5873 5872 5871 5870 5869 5869 5868 5866 5865 5863 5862 5861 5860 5859 5857 5856 5854 5853 5852 5850 5849 5848 5848 5846 5846 5845 5844 5843
5864 5867 5869 5870 5872 5875 5877 5878 5881 5885 5886 5883 5881 5879 5877 5876 5873 5871 5872 5872 5872 5871 5870 5869 5869 5868 5867 5866 5864 5863 5861 5860 5859 5858 5856 5855 5854 5851 5850 5850 5848 5846 5845 5844 5842 5841 5840 5838 5837
5859 5862 5864 5867 5868 5870 5873 5875 5879 5882 5882 5881 5879 5878 5876 5873 5870 5868 5869 5869 5869 5869 5868 5866 5866 5866 5864 5864 5862 5861 5859 5857 5856 5855 5853 5852 5850 5849 5847 5846 5844 5842 5841 5839 5837 5835 5834 5831 5829
5853 5856 5859 5863 5864 5865 5867 5870 5875 5877 5877 5873 5874 5874 5871 5869 5867 5864 5864 5866 5865 5866 5865 5863 5863 5862 5861 5860 5859 5858 5857 5855 5853 5852 5850 5848 5846 5844 5842 5841 5838 5836 5834 5832 5829 5828 5825 5823 5820
5849 5852 5855 5858 5862 5864 5865 5867 5869 5872 5870 5868 5868 5869 5867 5865 5863 5860 5859 5860 5861 5861 5861 5859 5858 5858 5857 5856 5854 5853 5852 5851 5849 5848 5846 5843 5841 5838 5836 5835 5831 5828 5825 5823 5821 5818 5815 5812 5809
5843 5847 5853 5857 5861 5862 5862 5861 5862 5865 5865 5862 5862 5863 5862 5860 5856 5852 5851 5852 5855 5855 5855 5854 5853 5853 5852 5851 5849 5848 5847 5846 5845 5842 5840 5838 5835 5832 5829 5827 5824 5820 5816 5813 5811 5808 5804 5801 5797
5838 5841 5844 5848 5851 5854 5855 5853 5852 5855 5858 5857 5854 5855 5856 5854 5849 5845 5847 5848 5849 5849 5849 5848 5847 5846 5845 5844 5843 5842 5841 5839 5838 5836 5833 5830 5827 5824 5821 5818 5815 5811 5807 5804 5801 5797 5793 5788 5783
5834 5837 5839 5842 5844 5845 5846 5846 5845 5845 5850 5851 5849 5846 5848 5848 5842 5841 5842 5842 5841 5841 5841 5841 5840 5838 5837 5836 5835 5834 5833 5831 5830 5828 5825 5822 5818 5816 5812 5809 5805 5801 5796 5792 5788 5784 5780 5776 5771
5828 5830 5832 5833 5835 5836 5839 5837 5839 5839 5839 5840 5841 5839 5839 5839 5835 5833 5834 5832 5832 5833 5834 5833 5832 5831 5830 5828 5827 5826 5824 5822 5820 5818 5815 5811 5809 5806 5803 5800 5795 5790 5785 5781 5776 5772 5768 5764 5759
5823 5825 5826 5827 5828 5828 5829 5829 5830 5833 5834 5834 5833 5832 5831 5831 5827 5824 5825 5825 5823 5824 5826 5826 5825 5823 5821 5820 5819 5817 5815 5813 5810 5807 5804 5801 5799 5796 5793 5789 5784 5779 5775 5771 5766 5761 5756 5751 5746
5818 5819 5820 5820 5821 5821 5823 5823 5822 5826 5828 5829 5829 5825 5822 5821 5819 5816 5816 5816 5815 5815 5817 5817 5816 5814 5813 5812 5810 5808 5806 5802 5799 5796 5793 5789 5788 5786 5782 5778 5773 5769 5764 5759 5755 5749 5744 5738 5732
5813 5814 5815 5815 5815 5815 5818 5817 5817 5819 5820 5822 5821 5818 5815 5814 5810 5808 5809 5809 5807 5807 5807 5807 5807 5806 5805 5804 5802 5799 5796 5793 5789 5786 5782 5778 5775 5774 5770 5766 5761 5757 5752 5747 5742 5736 5730 5724 5718
5808 5809 5810 5812 5813 5814 5816 5815 5814 5813 5814 5813 5813 5811 5809 5806 5804 5803 5802 5801 5801 5800 5800 5799 5799 5798 5797 5795 5792 5789 5786 5783 5779 5775 5773 5769 5764 5761 5758 5753 5748 5743 5738 5733 5727 5721 5715 5709 5703
5802 5803 5805 5806 5805 5805 5807 5809 5810 5808 5806 5805 5805 5803 5800 5799 5798 5796 5795 5794 5794 5793 5793 5792 5791 5790 5788 5786 5783 5780 5776 5773 5770 5766 5763 5759 5754 5749 5746 5740 5735 5730 5724 5719 5713 5706 5700 5694 5688
5796 5798 5800 5801 5801 5800 5801 5803 5805 5802 5799 5798 5795 5792 5791 5792 5791 5789 5788 5788 5787 5786 5786 5785 5784 5782 5780 5778 5775 5771 5767 5764 5760 5757 5753 5748 5742 5737 5731 5726 5721 5716 5710 5704 5698 5692 5686 5681 5674
5793 5793 5793 5795 5796 5796 5796 5800 5795 5793 5793 5792 5789 5786 5784 5782 5782 5782 5782 5781 5781 5780 5779 5778 5776 5774 5772 5768 5765 5762 5758 5754 5750 5746 5742 5736 5730 5725 5719 5713 5708 5702 5697 5691 5685 5679 5673 5667 5660
5787 5788 5789 5789 5788 5788 5788 5793 5787 5785 5784 5783 5780 5776 5776 5775 5775 5775 5775 5775 5774 5773 5772 5770 5767 5765 5762 5759 5755 5751 5747 5743 5739 5734 5729 5724 5718 5712 5706 5701 5695 5689 5684 5678 5672 5665 5659 5653 5645